Location: ?
(35.4554°N, 139.3092°E)
Time: 22:15:58
(UTC+00:00)

FENGYUN 3A - Pass Details

Date: 21 April 2021
Orbit: 823 x 837 km, 98.4° (Epoch: 10 May)

Event Time Altitude Azimuth Distance (km) Brightness Sun altitude
Rises 19:16:40 0° 6° (N) 3,368 7.2 -9.5°
Reaches altitude 10° 19:19:05 10° 2° (N) 2,430 6.4 -9.1°
Maximum altitude 19:24:17 52° 287° (WNW) 1,018 3.9 -8.1°
Drops below altitude 10° 19:29:26 10° 212° (SSW) 2,413 5.6 -7.1°
Sets 19:31:50 0° 208° (SSW) 3,342 6.4 -6.7°
